Weather History for LEPA - September, 2012

Change the Weather History Date:

Wednesday, September 19, 2012

  Actual Average Record
Temperature  
Mean Temperature 72 °F -  
Max Temperature 79 °F 75 °F 87 °F (2014)
Min Temperature 65 °F 57 °F 51 °F (2005)
Cooling Degree Days 7    
Growing Degree Days 22 (Base 50)    
Moisture  
Dew Point 63 °F    
Average Humidity 72    
Maximum Humidity 94    
Minimum Humidity 42    
Precipitation  
Precipitation 0.00 in 0.08 in - ()
Sea Level Pressure  
Sea Level Pressure 29.99 in    
Wind  
Wind Speed 8 mph ()    
Max Wind Speed 25 mph    
Max Gust Speed 31 mph    
Visibility 6.8 miles    
Events Rain    
Averages and records for this station are not official NWS values.
T = Trace of Precipitation, MM = Missing Value Source: Averaged Metar Reports

Daily Weather History Graph

Daily Weather History Graph

Search for Another Location

Airport or City:

Trip Planner

Search our weather history database for the weather conditions in past years. The results will help you decide how hot, cold, wet, or windy it might be!

Date:

Astronomy

Sep. 19, 2012 Rise Set
Actual Time 7:34 AM CEST 7:50 PM CEST
Civil Twilight 7:07 AM CEST 8:17 PM CEST
Nautical Twilight 6:35 AM CEST 8:48 PM CEST
Astronomical Twilight 6:03 AM CEST 9:21 PM CEST
Moon 11:25 AM CEST (9/19) 9:48 PM CEST (9/19)
Length of Visible Light 13h 10m
Length of Day
12h 16m
Waxing Crescent, 14% of the Moon is Illuminated
Sep 19
Waxing Crescent
Sep 22
First Quarter
Sep 30
Full
Oct 8
Last Quarter
Oct 15
New

Hourly Weather History & Observations

Time (CEST) Temp. Dew Point Humidity Pressure Visibility Wind Dir Wind Speed Gust Speed Precip Events Conditions
12:00 AM 73.4 °F 68.0 °F 83% 29.92 in 6.2 mi East 1.2 mph - N/A   Partly Cloudy
12:30 AM 73.4 °F 68.0 °F 83% 29.92 in 6.2 mi Calm Calm - N/A   Partly Cloudy
1:00 AM 71.6 °F 68.0 °F 88% 29.95 in 6.2 mi Calm Calm - N/A   Scattered Clouds
1:30 AM 69.8 °F 66.2 °F 88% 29.92 in 6.2 mi ENE 3.5 mph - N/A   Partly Cloudy
2:00 AM 69 °F 64 °F 79% 29.93 in 11 mi East 2.3 mph - -   Scattered Clouds
2:00 AM 69.8 °F 66.2 °F 88% 29.92 in 6.2 mi ENE 4.6 mph - N/A   Partly Cloudy
2:30 AM 69.8 °F 66.2 °F 88% 29.92 in 6.2 mi ENE 2.3 mph - N/A   Partly Cloudy
3:00 AM 69.8 °F 66.2 °F 88% 29.92 in 6.2 mi Calm Calm - N/A   Partly Cloudy
3:30 AM 69.8 °F 68.0 °F 94% 29.92 in 6.2 mi Calm Calm - N/A   Partly Cloudy
4:00 AM 68.0 °F 66.2 °F 94% 29.92 in 6.2 mi ENE 1.2 mph - N/A   Partly Cloudy
4:30 AM 66.2 °F 64.4 °F 94% 29.92 in 6.2 mi ENE 4.6 mph - N/A   Partly Cloudy
5:00 AM 66.2 °F 64.4 °F 94% 29.92 in 6.2 mi ENE 2.3 mph - N/A   Partly Cloudy
5:30 AM 68.0 °F 66.2 °F 94% 29.92 in 6.2 mi NE 1.2 mph - N/A   Partly Cloudy
6:00 AM 68.0 °F 66.2 °F 94% 29.92 in 6.2 mi Variable 1.2 mph - N/A   Partly Cloudy
6:30 AM 66.2 °F 64.4 °F 94% 29.92 in 6.2 mi NE 3.5 mph - N/A   Partly Cloudy
7:00 AM 68.0 °F 66.2 °F 94% 29.92 in 6.2 mi NE 4.6 mph - N/A   Partly Cloudy
7:30 AM 68.0 °F 66.2 °F 94% 29.95 in 6.2 mi NE 11.5 mph - N/A   Partly Cloudy
8:00 AM 72 °F 65 °F 74% 29.95 in 11 mi ENE 17.3 mph - -   Partly Cloudy
8:00 AM 71.6 °F 68.0 °F 88% 29.95 in 6.2 mi ENE 12.7 mph - N/A   Partly Cloudy
8:30 AM 73.4 °F 68.0 °F 83% 29.95 in 6.2 mi ENE 13.8 mph - N/A   Partly Cloudy
9:00 AM 73.4 °F 66.2 °F 78% 29.95 in 6.2 mi ENE 11.5 mph - N/A   Partly Cloudy
9:30 AM 73.4 °F 64.4 °F 73% 29.95 in 6.2 mi ENE 17.3 mph - N/A Rain Light Rain
10:00 AM 75.2 °F 64.4 °F 69% 29.98 in 6.2 mi ENE 13.8 mph - N/A   Partly Cloudy
10:30 AM 77.0 °F 64.4 °F 65% 29.98 in 6.2 mi ENE 17.3 mph - N/A   Partly Cloudy
11:00 AM 77.0 °F 62.6 °F 61% 30.01 in 6.2 mi ENE 17.3 mph 28.8 mph N/A   Partly Cloudy
11:30 AM 77.0 °F 62.6 °F 61% 30.01 in 6.2 mi ENE 25.3 mph - N/A   Partly Cloudy
12:00 PM 75.2 °F 62.6 °F 65% 30.04 in 6.2 mi ENE 19.6 mph - N/A   Mostly Cloudy
12:30 PM 77.0 °F 64.4 °F 65% 30.01 in 6.2 mi ENE 23.0 mph - N/A   Scattered Clouds
1:00 PM 75.2 °F 62.6 °F 65% 30.01 in 6.2 mi ENE 20.7 mph - N/A   Scattered Clouds
1:30 PM 75.2 °F 62.6 °F 65% 30.01 in 6.2 mi NE 21.9 mph - N/A   Scattered Clouds
2:00 PM 77 °F 58 °F 42% 30.02 in 16 mi ENE 25.3 mph - -   Partly Cloudy
2:00 PM 77.0 °F 62.6 °F 61% 30.01 in 6.2 mi ENE 23.0 mph - N/A   Scattered Clouds
2:30 PM 78.8 °F 62.6 °F 57% 30.04 in 6.2 mi ENE 18.4 mph 29.9 mph N/A   Partly Cloudy
3:00 PM 78.8 °F 62.6 °F 57% 30.01 in 6.2 mi ENE 19.6 mph 31.1 mph N/A   Partly Cloudy
3:30 PM 78.8 °F 62.6 °F 57% 30.01 in 6.2 mi ENE 20.7 mph - N/A   Partly Cloudy
4:00 PM 78.8 °F 62.6 °F 57% 30.01 in 6.2 mi NE 20.7 mph - N/A   Partly Cloudy
4:30 PM 78.8 °F 60.8 °F 54% 30.01 in 6.2 mi ENE 18.4 mph - N/A   Partly Cloudy
5:30 PM 77.0 °F 60.8 °F 57% 30.01 in 6.2 mi ENE 13.8 mph - N/A   Partly Cloudy
6:00 PM 77.0 °F 60.8 °F 57% 30.01 in 6.2 mi ENE 15.0 mph - N/A   Partly Cloudy
6:30 PM 75.2 °F 59.0 °F 57% 30.04 in 6.2 mi NE 17.3 mph - N/A   Partly Cloudy
7:00 PM 75.2 °F 59.0 °F 57% 30.04 in 6.2 mi ENE 17.3 mph - N/A   Partly Cloudy
7:30 PM 75.2 °F 59.0 °F 57% 30.04 in 6.2 mi ENE 13.8 mph - N/A   Partly Cloudy
8:00 PM 72 °F 56 °F 48% 30.06 in 16 mi ENE 13.8 mph - -   Scattered Clouds
8:30 PM 73.4 °F 59.0 °F 61% 30.06 in 6.2 mi ENE 10.4 mph - N/A   Partly Cloudy
9:00 PM 71.6 °F 59.0 °F 64% 30.06 in 6.2 mi ENE 9.2 mph - N/A   Partly Cloudy
9:30 PM 71.6 °F 59.0 °F 64% 30.06 in 6.2 mi ENE 10.4 mph - N/A   Partly Cloudy
10:00 PM 71.6 °F 59.0 °F 64% 30.06 in 6.2 mi ENE 9.2 mph - N/A   Partly Cloudy
10:30 PM 69.8 °F 59.0 °F 68% 30.09 in 6.2 mi ENE 8.1 mph - N/A   Partly Cloudy
11:00 PM 69.8 °F 59.0 °F 68% 30.09 in 6.2 mi ENE 8.1 mph - N/A   Partly Cloudy
11:30 PM 69.8 °F 59.0 °F 68% 30.09 in 6.2 mi ENE 6.9 mph - N/A   Partly Cloudy